OpenBCM V1.08-5-g2f4a (Linux)

Packet Radio Mailbox

IZ3LSV

[San Dona' di P. JN]

 Login: GUEST





  
LU9DCE > SAT      30.05.16 22:20l 222 Lines 11602 Bytes #999 (0) @ WW
BID : 210_LU9DCE
Read: GUEST
Subj: KEPLES amateur
Path: IZ3LSV<IK6IHL<IK7NXU<HB9CSR<IK2XDE<DB0RES<DB0OVN<DB0GOS<ON0AR<OZ5BBS<
      CX2SA<LU9DCE
Sent: 160530/2013Z @:LU9DCE.TOR.BA.AR.SOAM #:210 [TORTUGUITAS] FBB7.00e
From: LU9DCE@LU9DCE.TOR.BA.AR.SOAM
To  : SAT@WW


OSCAR 7 (AO-7)          
1 07530U 74089B   16151.18456225 -.00000015  00000-0  17934-3 0  9994
2 07530 101.5728 122.3800 0012007 348.4101  82.1796 12.53621529900860
UOSAT 2 (UO-11)         
1 14781U 84021B   16150.94831395  .00000172  00000-0  27663-4 0  9999
2 14781  97.7509 203.5087 0009011  24.2627 335.9010 14.82745128712552
LUSAT (LO-19)           
1 20442U 90005G   16151.39789713  .00000027  00000-0  26027-4 0  9997
2 20442  98.5428  86.5881 0011382 193.4189 166.6694 14.32817283376807
EYESAT-1 (AO-27)        
1 22825U 93061C   16151.45208214  .00000019  00000-0  24980-4 0  9995
2 22825  98.7578 107.5903 0008755  17.3979 342.7502 14.29956230182703
ITAMSAT (IO-26)         
1 22826U 93061D   16151.43057722  .00000030  00000-0  29010-4 0  9992
2 22826  98.7522 107.6947 0009111   8.5446 351.5890 14.30280786182863
RADIO ROSTO (RS-15)     
1 23439U 94085A   16150.94152189 -.00000033  00000-0  28060-3 0  9995
2 23439  64.8158 119.0385 0165420 310.9736  47.6975 11.27565797882364
JAS-2 (FO-29)           
1 24278U 96046B   16150.83152414 -.00000015  00000-0  23641-4 0  9996
2 24278  98.5855  78.4471 0349403 250.0992 106.2188 13.53067728976770
TECHSAT 1B (GO-32)      
1 25397U 98043D   16150.86670014  .00000006  00000-0  21582-4 0  9993
2 25397  98.5660  96.2851 0002213  59.6195 300.5203 14.23594796929032
ISS (ZARYA)             
1 25544U 98067A   16151.48880436  .00002207  00000-0  39756-4 0  9990
2 25544  51.6432 146.3199 0001786 131.4624  13.8986 15.54707807  2235
PCSAT (NO-44)           
1 26931U 01043C   16150.94854612 -.00000005  00000-0  29814-4 0  9995
2 26931  67.0517 359.9634 0006931 262.0563  97.9752 14.30408787765460
SAUDISAT 1C (SO-50)     
1 27607U 02058C   16151.53905358  .00000119  00000-0  37786-4 0  9995
2 27607  64.5547 214.7647 0069955 220.7745 138.8110 14.75157829722661
CUTE-1 (CO-55)          
1 27844U 03031E   16150.94677089  .00000094  00000-0  62554-4 0  9994
2 27844  98.6923 159.4951 0010138  22.8957 337.2671 14.21950478669814
CUBESAT XI-IV (CO-57)   
1 27848U 03031J   16150.98505576  .00000079  00000-0  56036-4 0  9994
2 27848  98.7020 159.6159 0010200  30.7034 329.4739 14.21576845669756
MOZHAYETS 4 (RS-22)     
1 27939U 03042A   16151.38814856  .00000238  00000-0  51411-4 0  9995
2 27939  97.8869 303.7505 0013133   7.8802 352.2634 14.66402526677212
CUBESAT XI-V (CO-58)    
1 28895U 05043F   16150.76872544  .00000272  00000-0  61359-4 0  9999
2 28895  97.8315 325.6333 0015468 277.7530  82.1916 14.63193763564417
CUTE-1.7+APD II (CO-65) 
1 32785U 08021C   16151.20905404  .00000505  00000-0  61292-4 0  9998
2 32785  97.6041 186.1718 0013197   3.7149 356.4163 14.87557627437959
DELFI-C3 (DO-64)        
1 32789U 08021G   16150.89044857  .00002491  00000-0  18856-3 0  9995
2 32789  97.6084 210.4372 0011698 332.5793  27.4814 15.03165203439155
SEEDS II (CO-66)        
1 32791U 08021J   16151.38998235  .00000774  00000-0  86269-4 0  9997
2 32791  97.6048 189.4469 0013245 352.1665   7.9344 14.89752430438142
YUBILEINY (RS-30)       
1 32953U 08025A   16151.33564414  .00000010  00000-0 -13620-7 0  9992
2 32953  82.5012 117.7525 0020213  43.1339 317.1324 12.43069555363868
PRISM (HITOMI)          
1 33493U 09002B   16151.53405869  .00000366  00000-0  39434-4 0  9999
2 33493  98.2186  10.7963 0014324 266.5236  93.4346 14.94900473398592
KKS-1 (KISEKI)          
1 33499U 09002H   16150.88881179  .00000269  00000-0  48056-4 0  9996
2 33499  98.2856 300.1449 0009928 148.3941 211.7865 14.74984678394438
SWISSCUBE               
1 35932U 09051B   16151.33529800  .00000268  00000-0  71929-4 0  9999
2 35932  98.4457 278.2079 0007399 358.3239   1.7932 14.55813915354610
BEESAT                  
1 35933U 09051C   16150.94360852  .00000215  00000-0  59613-4 0  9994
2 35933  98.4483 278.8974 0005986  15.8650 344.2733 14.55956425354575
ITUPSAT 1               
1 35935U 09051E   16150.85928691  .00000208  00000-0  58962-4 0  9995
2 35935  98.4591 279.0604 0008067   4.2733 355.8531 14.55166976354485
XIWANG-1 (HOPE-1)       
1 36122U 09072B   16151.34913265 -.00000059  00000-0 -43517-4 0  9999
2 36122 100.1446 187.9281 0007977  42.5272 317.6459 13.16334384310263
TISAT 1                 
1 36799U 10035E   16151.25389663  .00000992  00000-0  10939-3 0  9994
2 36799  98.0287 261.2565 0013591 140.3336 219.8877 14.89792823318755
JUGNU                   
1 37839U 11058B   16150.65266622  .00000328  00000-0  32976-4 0  9997
2 37839  19.9613 255.9473 0018862 276.1980 219.8983 14.12541763239406
SRMSAT                  
1 37841U 11058D   16150.73386522  .00000315  00000-0  28227-4 0  9991
2 37841  19.9731 289.2591 0011750 189.9388 302.4292 14.10540446239073
M-CUBED & EXP-1 PRIME   
1 37855U 11061F   16151.52562428  .00003918  00000-0  21877-3 0  9994
2 37855 101.7174 183.2959 0187379 130.1201 231.6598 15.00992017249341
HORYU 2                 
1 38340U 12025D   16150.92412073  .00000453  00000-0  75437-4 0  9991
2 38340  98.3540 135.8928 0013097  72.4833 287.7805 14.75017852206377
STRAND-1                
1 39090U 13009E   16151.55528099  .00000046  00000-0  31741-4 0  9991
2 39090  98.5852 353.8813 0009240   1.9999 358.1222 14.34897844170602
SOMP                    
1 39134U 13015E   16150.90755934  .00002675  00000-0  14898-3 0  9998
2 39134  64.8719  21.7425 0008888 273.2127  86.7982 15.15879036170962
BEESAT-2                
1 39136U 13015G   16151.08554982  .00001993  00000-0  12102-3 0  9998
2 39136  64.8727  26.9947 0007471 275.6655  84.3617 15.13564952171267
CUBEBUG-1 (CAPITAN BETO)
1 39153U 13018D   16151.50407645  .00000407  00000-0  60969-4 0  9994
2 39153  97.9980 239.6350 0016650 202.7273 157.3203 14.79873242166982
ZACUBE-1 (TSHEPISOSAT)  
1 39417U 13066B   16151.43457057  .00000529  00000-0  73815-4 0  9993
2 39417  97.6812 205.0640 0061260  81.1933 279.6210 14.80385916136143
TRITON-1                
1 39427U 13066M   16150.81209694  .00000401  00000-0  72378-4 0  9999
2 39427  97.6685 185.2855 0115970 135.6100 225.4474 14.67177659134639
GOMX 1                  
1 39430U 13066Q   16151.35016599  .00000318  00000-0  67056-4 0  9997
2 39430  97.6714 173.6533 0152690 171.2624 189.1291 14.58584268134122
HUMSAT-D                
1 39433U 13066T   16151.15441601  .00000910  00000-0  97235-4 0  9994
2 39433  97.6987 218.5969 0032730  51.2110 309.2024 14.90794209136932
EAGLE 2                 
1 39436U 13066W   16151.22238372  .00017488  00000-0  77523-3 0  9999
2 39436  97.7156 237.5172 0014863 353.1545   6.9485 15.21578169138141
CUBEBUG-2 (LO-74)       
1 39440U 13066AA  16151.17594102  .00000504  00000-0  77823-4 0  9999
2 39440  97.6750 197.1763 0082760 101.8837 259.1668 14.75147365135628
FUNCUBE-1 (AO-73)       
1 39444U 13066AE  16150.85218651  .00000602  00000-0  81833-4 0  9994
2 39444  97.6824 205.0933 0060485  81.2355 279.5702 14.81050704134270
UWE-3                   
1 39446U 13066AG  16151.12450619  .00000474  00000-0  70352-4 0  9990
2 39446  97.6773 200.7682 0072425  92.1938 268.7568 14.77671296134622
SPROUT                  
1 39770U 14029E   16151.31141935  .00001856  00000-0  22187-3 0  9996
2 39770  97.8705 248.7431 0010724 137.0907 223.1170 14.85357073109283
UNISAT-6                
1 40012U 14033C   16151.47643913  .00000408  00000-0  68917-4 0  9996
2 40012  97.9043  40.1660 0060423  83.9205 276.8884 14.73331893104583
DUCHIFAT-1              
1 40021U 14033M   16151.34434446  .00000856  00000-0  96263-4 0  9993
2 40021  97.9330  57.8435 0014544 117.7669 242.5024 14.89283427105606
CHUBUSAT-1              
1 40300U 14070C   16151.50717582  .00001342  00000-0  65565-4 0  9999
2 40300  97.4258 231.8984 0021632   4.6317 121.2657 15.19785486 86646
NUDT-PHONESAT           
1 40900U 15049B   16151.57121001  .00003625  00000-0  18770-3 0  9995
2 40900  97.4454 159.6109 0016935 114.6502   3.6387 15.16717804 38404
ZDPS 2A                 
1 40901U 15049C   16151.53291985  .00001530  00000-0  85320-4 0  9990
2 40901  97.4589 159.6707 0016159 110.7292   7.8943 15.14974310 38374
ZDPS 2B                 
1 40902U 15049D   16151.55804911  .00002057  00000-0  11390-3 0  9992
2 40902  97.4445 159.1508 0016256 107.7807  11.0968 15.14833360 38379
XW-2A                   
1 40903U 15049E   16151.54229020  .00003306  00000-0  95478-4 0  9992
2 40903  97.4465 166.4795 0015298 192.2160 287.9434 15.36297724 38843
KAITUO 1A               
1 40904U 15049F   16151.54468950  .00001221  00000-0  71073-4 0  9999
2 40904  97.4534 159.1407 0016972 104.5224  11.2436 15.13764224 38341
2015-049G               
1 40905U 15049G   16151.55172881  .00001227  00000-0  73141-4 0  9990
2 40905  97.4480 158.6436 0018058  94.8180  19.9852 15.12880869 38336
XW-2C                   
1 40906U 15049H   16151.54112456  .00001386  00000-0  80708-4 0  9995
2 40906  97.4529 158.9998 0017537  97.6255  20.4457 15.13544740 38336
XW-2D                   
1 40907U 15049J   16151.54389559  .00001523  00000-0  88223-4 0  9999
2 40907  97.4500 158.8864 0016924  95.8899  28.1609 15.13583417 38338
LILACSAT 2              
1 40908U 15049K   16151.53979271  .00000732  00000-0  45565-4 0  9998
2 40908  97.4602 158.9103 0018280  91.8956  24.6816 15.12515384 38312
XW-2F                   
1 40910U 15049M   16151.58152218  .00001908  00000-0  10829-3 0  9990
2 40910  97.4535 159.0903 0018108  94.9615  21.5198 15.14013007 38232
XW-2B                   
1 40911U 15049N   16151.54199038  .00001491  00000-0  86477-4 0  9998
2 40911  97.4543 159.0457 0016713  96.0317  21.4274 15.13567619 38234
